sat.trackr.live / text

‹ back to catalog

STARLINK-31163

NORAD 58807 · 2024-012W

PAYLOAD ACTIVE UNKNOWN

§ Identity

Operator
Country
US
Launch date
2024-01-15
Launch site
AFETR
Launch vehicle
Mass (kg)
RCS (m²)

Purposes: comms

External: N2YO · Heavens-Above · Gunter

§ Orbital elements

Epoch: 2026-05-25T03:32:21.454656Z

Period
94.27 min
Inclination
43.0012°
Eccentricity
0.0000733
Mean motion
15.27579516 rev/d
Perigee alt
482.5 km
Apogee alt
483.6 km
Semi-major
6,861.2 km
B*
3.6841e-5
RAAN
93.0685°
Arg perigee
261.5498°
Mean anomaly
98.5271°
Rev number
13,293

§ Raw data

STARLINK-311631 58807U 24012W   26145.14747054  .00000752  00000+0  36841-4 0  99962 58807  43.0012  93.0685 0000733 261.5498  98.5271 15.27579516132937

JSON: /api/v1/satellites/58807 · /tle

For live sub-satellite position, see the globe view (requires WebGL).

§ Visibility from observer

Set your observer location to see the next 7 days of passes ≥ 10°. The values pass through the URL so the page stays shareable.

No JS? Fill the form by hand. The geolocation button needs JavaScript.